Chemoulin, France

2:02 AM CET on February 20, 2017 (GMT +0100)
Montoir

Weather History for LFRZ - October, 2012

Change the Weather History Date:

Thursday, October 18, 2012

  Actual Average Record
Temperature  
Mean Temperature 56 °F -  
Max Temperature 59 °F 56 °F 77 °F (1997)
Min Temperature 53 °F 45 °F 37 °F (2008)
Degree Days  
Heating Degree Days 9    
Growing Degree Days 6 (Base 50)    
Moisture  
Dew Point 55 °F    
Average Humidity 93    
Maximum Humidity 100    
Minimum Humidity 82    
Precipitation  
Precipitation 0.00 in - - ()
Sea Level Pressure  
Sea Level Pressure 29.63 in    
Wind  
Wind Speed 11 mph ()    
Max Wind Speed 17 mph    
Max Gust Speed -    
Visibility 6.1 miles    
Events Rain    
Averages and records for this station are not official NWS values.
T = Trace of Precipitation, MM = Missing Value Source: Averaged Metar Reports

Daily Weather History Graph

Daily Weather History Graph

Search for Another Location

Airport or City:

Trip Planner

Search our weather history database for the weather conditions in past years. The results will help you decide how hot, cold, wet, or windy it might be!

Date:

Astronomy

Oct. 18, 2012 Rise Set
Actual Time 8:31 AM CEST 7:14 PM CEST
Civil Twilight 8:00 AM CEST 7:45 PM CEST
Nautical Twilight 7:25 AM CEST 8:21 PM CEST
Astronomical Twilight 6:49 AM CEST 8:56 PM CEST
Moon 12:12 PM CEST (10/18) 9:19 PM CEST (10/18)
Length of Visible Light 11h 45m
Length of Day
10h 43m
Waxing Crescent, 12% of the Moon is Illuminated
Oct 18
Waxing Crescent
Oct 22
First Quarter
Oct 29
Full
Nov 7
Last Quarter
Nov 13
New

Hourly Weather History & Observations

Time (CEST) Temp. Dew Point Humidity Pressure Visibility Wind Dir Wind Speed Gust Speed Precip Events Conditions
12:00 AM 57.2 °F 55.4 °F 94% 29.56 in 6.2 mi South 12.7 mph - N/A Rain Light Rain
12:30 AM 57.2 °F 57.2 °F 100% 29.56 in 6.2 mi South 13.8 mph - N/A Rain Light Rain
1:00 AM 57.2 °F 57.2 °F 100% 29.56 in 6.2 mi South 16.1 mph - N/A Rain Light Rain
1:30 AM 57.2 °F 57.2 °F 100% 29.56 in 6.2 mi South 16.1 mph - N/A Rain Light Rain
2:00 AM 57.2 °F 57.2 °F 100% 29.59 in 6.2 mi SSW 13.8 mph - N/A Rain Light Rain
2:30 AM 57.2 °F 53.6 °F 88% 29.59 in 6.2 mi SW 17.3 mph - N/A Rain Light Rain
3:00 AM 57.2 °F 53.6 °F 88% 29.59 in 6.2 mi SSW 17.3 mph - N/A Rain Light Rain
3:30 AM 57.2 °F 53.6 °F 88% 29.59 in 6.2 mi South 16.1 mph - N/A Rain Light Rain
4:00 AM 57.2 °F 55.4 °F 94% 29.59 in 5.6 mi South 10.4 mph - N/A Rain Light Rain
4:30 AM 57.2 °F 55.4 °F 94% 29.59 in 6.2 mi South 13.8 mph - N/A Rain Light Rain
5:00 AM 57.2 °F 53.6 °F 88% 29.56 in 6.2 mi South 13.8 mph - N/A Rain Light Rain
5:30 AM 57.2 °F 55.4 °F 94% 29.56 in 6.2 mi South 11.5 mph - N/A Rain Light Rain
6:00 AM 57.2 °F 53.6 °F 88% 29.56 in 6.2 mi SSW 12.7 mph - N/A Rain Light Rain
6:30 AM 57.2 °F 55.4 °F 94% 29.56 in 6.2 mi SSW 13.8 mph - N/A Rain Light Rain
7:00 AM 57.2 °F 55.4 °F 94% 29.59 in 6.2 mi SSW 12.7 mph - N/A Rain Light Rain
7:30 AM 57.2 °F 53.6 °F 88% 29.59 in 6.2 mi South 10.4 mph - N/A Rain Rain
8:00 AM 57.2 °F 55.4 °F 94% 29.59 in 6.2 mi South 11.5 mph - N/A Rain Light Rain
8:30 AM 57.2 °F 55.4 °F 94% 29.59 in 6.2 mi South 13.8 mph - N/A   Overcast
9:00 AM 57.2 °F 55.4 °F 94% 29.62 in 6.2 mi South 13.8 mph - N/A   Unknown
9:30 AM 57.2 °F 55.4 °F 94% 29.62 in 6.2 mi South 12.7 mph - N/A Rain Light Rain
10:00 AM 57.2 °F 55.4 °F 94% 29.62 in 6.2 mi South 10.4 mph - N/A   Mostly Cloudy
10:30 AM 59.0 °F 55.4 °F 88% 29.62 in 6.2 mi South 10.4 mph - N/A   Mostly Cloudy
11:00 AM 59.0 °F 55.4 °F 88% 29.62 in 6.2 mi South 11.5 mph - N/A   Unknown
11:30 AM 59.0 °F 57.2 °F 94% 29.65 in 6.2 mi South 12.7 mph - N/A   Unknown
12:00 PM 59.0 °F 53.6 °F 82% 29.65 in 6.2 mi South 12.7 mph - N/A   Mostly Cloudy
12:30 PM 59.0 °F 55.4 °F 88% 29.65 in 6.2 mi South 10.4 mph - N/A   Mostly Cloudy
1:00 PM 59.0 °F 55.4 °F 88% 29.65 in 6.2 mi South 12.7 mph - N/A Rain Light Rain
1:30 PM 59.0 °F 55.4 °F 88% 29.65 in 6.2 mi South 12.7 mph - N/A Rain Light Rain
2:00 PM 59.0 °F 57.2 °F 94% 29.65 in 6.2 mi South 11.5 mph - N/A Rain Light Rain
2:30 PM 59.0 °F 57.2 °F 94% 29.65 in 6.2 mi South 11.5 mph - N/A Rain Light Rain
3:00 PM 59.0 °F 57.2 °F 94% 29.65 in 6.2 mi South 11.5 mph - N/A Rain Light Rain
3:30 PM 59.0 °F 57.2 °F 94% 29.65 in 6.2 mi South 11.5 mph - N/A   Overcast
4:00 PM 59.0 °F 55.4 °F 88% 29.65 in 6.2 mi South 10.4 mph - N/A Rain Light Rain
4:30 PM 59.0 °F 57.2 °F 94% 29.65 in 6.2 mi South 6.9 mph - N/A   Overcast
5:00 PM 57.2 °F 55.4 °F 94% 29.65 in 6.2 mi South 9.2 mph - N/A Rain Light Rain
5:30 PM 57.2 °F 55.4 °F 94% 29.65 in 6.2 mi South 8.1 mph - N/A Rain Light Rain
6:00 PM 57.2 °F 55.4 °F 94% 29.68 in 6.2 mi South 8.1 mph - N/A Rain Light Rain
6:30 PM 57.2 °F 55.4 °F 94% 29.68 in 6.2 mi South 5.8 mph - N/A Rain Light Rain
7:00 PM 55.4 °F 55.4 °F 100% 29.68 in 6.2 mi South 5.8 mph - N/A Rain Light Rain
7:30 PM 55.4 °F 55.4 °F 100% 29.68 in 6.2 mi South 5.8 mph - N/A Rain Light Rain
8:00 PM 55.4 °F 53.6 °F 94% 29.68 in 6.2 mi South 5.8 mph - N/A   Mostly Cloudy
8:30 PM 55.4 °F 53.6 °F 94% 29.68 in 6.2 mi South 5.8 mph - N/A Rain Light Rain
9:00 PM 55.4 °F 53.6 °F 94% 29.68 in 6.2 mi SSE 3.5 mph - N/A Rain Light Rain
9:30 PM 55.4 °F 53.6 °F 94% 29.71 in 6.2 mi SSE 2.3 mph - N/A Rain Light Rain
10:00 PM 55.4 °F 53.6 °F 94% 29.68 in 6.2 mi Calm Calm - N/A Rain Light Rain
10:30 PM 53.6 °F 53.6 °F 100% 29.68 in 6.2 mi East 2.3 mph - N/A Rain Light Rain
11:00 PM 55.4 °F 53.6 °F 94% 29.71 in 5.0 mi East 3.5 mph - N/A Rain Light Rain
11:30 PM 53.6 °F 53.6 °F 100% 29.71 in 5.0 mi ESE 4.6 mph - N/A Rain Light Rain